"read_dt","SO2 (ppb)","flags","PMT voltage (V)","lamp voltage (V)","lamp intensity (Hz)","internal temp (C)","react chamber temp (C)","sample flow (l/min)","pres (mmHg)","SO2 bkg (ppb)","SO2 coefficient"
2014-02-08 00:00:00,4411E-2,5C000495,-0725,1372,6229,001.9,041.3,0.188,779.8,01.14,0.508
2014-02-08 00:01:00,4343E-2,5C000495,-0725,1372,6182,001.9,041.3,0.188,779.9,01.14,0.508
2014-02-08 00:02:00,4372E-2,5C000495,-0725,1372,6209,001.8,041.3,0.188,779.9,01.14,0.508
2014-02-08 00:03:00,4380E-2,5C000495,-0725,1372,6209,001.8,041.3,0.188,779.9,01.14,0.508
2014-02-08 00:04:00,4398E-2,5C000495,-0725,1372,6053,001.8,041.3,0.188,779.9,01.14,0.508
2014-02-08 00:05:00,4350E-2,5C000495,-0725,1372,6204,001.8,041.2,0.188,779.9,01.14,0.508
2014-02-08 00:06:00,4468E-2,5C000495,-0725,1372,6122,001.8,041.2,0.188,779.9,01.14,0.508
2014-02-08 00:07:00,4342E-2,5C000495,-0725,1372,6088,001.7,041.2,0.188,779.9,01.14,0.508
2014-02-08 00:08:00,4344E-2,5C000495,-0725,1372,6169,001.7,041.2,0.188,779.9,01.14,0.508
2014-02-08 00:09:00,4346E-2,5C000495,-0725,1372,6145,001.7,041.2,0.188,779.9,01.14,0.508
2014-02-08 00:10:00,4349E-2,5C000495,-0725,1372,6242,001.7,041.2,0.188,779.6,01.14,0.508
2014-02-08 00:11:00,4383E-2,5C000495,-0725,1372,6187,001.7,041.1,0.188,779.3,01.14,0.508
2014-02-08 00:12:00,4406E-2,5C000495,-0725,1372,6161,001.7,041.2,0.188,779.3,01.14,0.508
2014-02-08 00:13:00,4346E-2,5C000495,-0725,1372,6026,001.7,041.1,0.188,779.3,01.14,0.508
2014-02-08 00:14:00,4357E-2,5C000495,-0725,1372,6092,001.7,041.1,0.188,779.4,01.14,0.508
2014-02-08 00:15:00,4347E-2,5C000495,-0725,1372,6082,001.7,041.1,0.188,779.4,01.14,0.508
2014-02-08 00:16:00,4290E-2,5C000495,-0725,1372,6083,001.6,041.1,0.188,779.4,01.14,0.508
2014-02-08 00:17:00,4349E-2,5C000495,-0725,1372,6055,001.6,041.1,0.188,779.5,01.14,0.508
2014-02-08 00:18:00,4328E-2,5C000495,-0725,1372,5930,001.6,041.1,0.188,779.5,01.14,0.508
2014-02-08 00:19:00,4335E-2,5C000495,-0725,1372,5937,001.6,041.1,0.188,779.7,01.14,0.508
2014-02-08 00:20:00,4312E-2,5C000495,-0725,1372,5919,001.6,041.1,0.188,779.8,01.14,0.508
2014-02-08 00:21:00,4246E-2,5C000495,-0725,1372,5994,001.6,041.1,0.188,779.8,01.14,0.508
2014-02-08 00:22:00,4339E-2,5C000495,-0725,1372,5931,001.5,041.0,0.188,779.8,01.14,0.508
2014-02-08 00:23:00,4347E-2,5C000495,-0725,1372,6000,001.5,041.0,0.188,779.8,01.14,0.508
2014-02-08 00:24:00,4305E-2,5C000495,-0725,1372,6001,001.5,041.0,0.188,779.8,01.14,0.508
2014-02-08 00:25:00,4353E-2,5C000495,-0725,1372,5998,001.5,041.0,0.188,779.8,01.14,0.508
2014-02-08 00:26:00,4324E-2,5C000495,-0725,1372,5981,001.5,041.0,0.189,779.8,01.14,0.508
2014-02-08 00:27:00,4320E-2,5C000495,-0725,1372,6010,001.5,041.0,0.189,779.8,01.14,0.508
2014-02-08 00:28:00,4311E-2,5C000495,-0725,1372,5996,001.5,041.0,0.189,779.8,01.14,0.508
2014-02-08 00:29:00,4317E-2,5C000495,-0725,1372,5946,001.4,041.0,0.189,779.8,01.14,0.508
2014-02-08 00:30:00,4279E-2,5C000495,-0725,1372,5926,001.4,040.9,0.189,779.4,01.14,0.508
2014-02-08 00:31:00,4309E-2,5C000495,-0725,1372,5937,001.4,040.9,0.189,779.3,01.14,0.508
2014-02-08 00:32:00,4235E-2,5C000495,-0725,1372,5896,001.4,041.0,0.189,779.3,01.14,0.508
2014-02-08 00:33:00,4308E-2,5C000495,-0725,1372,5881,001.4,040.9,0.189,779.3,01.14,0.508
2014-02-08 00:34:00,4249E-2,5C000495,-0725,1372,5931,001.4,040.9,0.189,779.4,01.14,0.508
2014-02-08 00:35:00,4239E-2,5C000495,-0725,1372,5844,001.4,040.9,0.189,779.4,01.14,0.508
2014-02-08 00:36:00,4203E-2,5C000495,-0725,1372,5862,001.4,040.9,0.189,779.4,01.14,0.508
2014-02-08 00:37:00,4320E-2,5C000495,-0725,1372,5883,001.3,040.9,0.189,779.6,01.14,0.508
2014-02-08 00:38:00,4302E-2,5C000495,-0725,1372,5851,001.3,040.9,0.189,779.3,01.14,0.508
2014-02-08 00:39:00,4246E-2,5C000495,-0725,1372,5797,001.3,040.9,0.189,779.7,01.14,0.508
2014-02-08 00:40:00,4243E-2,5C000495,-0725,1372,5840,001.3,040.8,0.189,779.7,01.14,0.508
2014-02-08 00:41:00,4296E-2,5C000495,-0725,1372,5853,001.3,040.8,0.189,779.8,01.14,0.508
2014-02-08 00:42:00,4283E-2,5C000495,-0725,1372,5838,001.3,040.8,0.189,779.8,01.14,0.508
2014-02-08 00:43:00,4301E-2,5C000495,-0725,1372,5886,001.3,040.8,0.189,779.8,01.14,0.508
2014-02-08 00:44:00,4236E-2,5C000495,-0725,1372,5789,001.3,040.8,0.189,779.8,01.14,0.508
2014-02-08 00:45:00,4257E-2,5C000495,-0725,1372,5785,001.3,040.8,0.189,779.8,01.14,0.508
2014-02-08 00:46:00,4235E-2,5C000495,-0725,1372,5820,001.2,040.8,0.189,779.9,01.14,0.508
2014-02-08 00:47:00,4275E-2,5C000495,-0725,1372,5799,001.3,040.7,0.189,779.9,01.14,0.508
2014-02-08 00:48:00,4210E-2,5C000495,-0725,1372,5713,001.2,040.7,0.189,779.9,01.14,0.508
2014-02-08 00:49:00,4269E-2,5C000495,-0725,1372,5751,001.2,040.7,0.189,779.9,01.14,0.508
2014-02-08 00:50:00,4231E-2,5C000495,-0725,1372,5730,001.2,040.7,0.189,779.9,01.14,0.508
2014-02-08 00:51:00,4230E-2,5C000495,-0725,1372,5733,001.2,040.7,0.189,779.9,01.14,0.508
2014-02-08 00:52:00,4167E-2,5C000495,-0725,1372,5774,001.2,040.7,0.189,779.5,01.14,0.508
2014-02-08 00:53:00,4223E-2,5C000495,-0725,1372,5771,001.1,040.7,0.189,779.4,01.14,0.508
2014-02-08 00:54:00,4220E-2,5C000495,-0725,1372,5764,001.1,040.7,0.189,779.4,01.14,0.508
2014-02-08 00:55:00,4210E-2,5C000495,-0725,1372,5711,001.1,040.6,0.189,779.4,01.14,0.508
2014-02-08 00:56:00,4163E-2,5C000495,-0725,1372,5677,001.1,040.6,0.189,779.5,01.14,0.508
2014-02-08 00:57:00,4250E-2,5C000495,-0725,1372,5636,001.1,040.6,0.189,779.6,01.14,0.508
2014-02-08 00:58:00,4296E-2,5C000495,-0725,1372,5611,001.1,040.6,0.189,779.6,01.14,0.508
2014-02-08 00:59:00,4222E-2,5C000495,-0725,1372,5588,001.1,040.6,0.189,779.7,01.14,0.508
2014-02-08 01:00:00,4255E-2,5C000495,-0725,1372,5638,001.0,040.6,0.189,779.7,01.14,0.508
2014-02-08 01:01:00,4234E-2,5C000495,-0725,1372,5626,001.1,040.5,0.189,779.7,01.14,0.508
2014-02-08 01:02:00,4268E-2,5C000495,-0725,1372,5586,001.1,040.6,0.189,779.7,01.14,0.508
2014-02-08 01:03:00,4219E-2,5C000495,-0725,1372,5693,001.0,040.5,0.189,779.7,01.14,0.508
2014-02-08 01:04:00,4293E-2,5C000495,-0725,1372,5687,001.0,040.5,0.189,779.8,01.14,0.508
2014-02-08 01:05:00,4288E-2,5C000495,-0725,1372,5613,001.0,040.5,0.189,779.8,01.14,0.508
2014-02-08 01:06:00,4235E-2,5C000495,-0725,1372,5651,001.0,040.5,0.189,779.8,01.14,0.508
2014-02-08 01:07:00,4229E-2,5C000495,-0725,1372,5609,001.0,040.5,0.190,779.8,01.14,0.508
2014-02-08 01:08:00,4250E-2,5C000495,-0725,1372,5609,001.0,040.5,0.190,779.8,01.14,0.508
2014-02-08 01:09:00,4299E-2,5C000495,-0725,1372,5597,001.0,040.5,0.190,779.8,01.14,0.508
2014-02-08 01:10:00,4298E-2,5C000495,-0725,1372,5647,001.0,040.5,0.190,779.8,01.14,0.508
2014-02-08 01:11:00,4268E-2,5C000495,-0725,1372,5477,000.9,040.5,0.190,779.8,01.14,0.508
2014-02-08 01:12:00,4174E-2,5C000495,-0725,1372,5569,000.9,040.4,0.190,779.9,01.14,0.508
2014-02-08 01:13:00,4231E-2,5C000495,-0725,1372,5568,000.9,040.4,0.190,779.9,01.14,0.508
2014-02-08 01:14:00,4215E-2,5C000495,-0725,1372,5512,000.9,040.4,0.190,779.9,01.14,0.508
2014-02-08 01:15:00,4272E-2,5C000495,-0725,1372,5516,000.9,040.4,0.190,779.9,01.14,0.508
2014-02-08 01:16:00,4184E-2,5C000495,-0725,1372,5476,000.9,040.4,0.190,779.9,01.14,0.508
2014-02-08 01:17:00,4168E-2,5C000495,-0725,1372,5530,000.9,040.4,0.190,779.9,01.14,0.508
2014-02-08 01:18:00,4191E-2,5C000495,-0725,1372,5424,000.9,040.4,0.190,779.9,01.14,0.508
2014-02-08 01:19:00,4217E-2,5C000495,-0725,1372,5432,000.8,040.4,0.190,779.9,01.14,0.508
2014-02-08 01:20:00,4186E-2,5C000495,-0725,1372,5488,000.8,040.3,0.190,779.8,01.14,0.508
2014-02-08 01:21:00,4192E-2,5C000495,-0725,1372,5473,000.8,040.3,0.190,779.8,01.14,0.508
2014-02-08 01:22:00,4183E-2,5C000495,-0725,1372,5395,000.8,040.3,0.190,779.9,01.14,0.508
2014-02-08 01:23:00,4164E-2,5C000495,-0725,1372,5429,000.8,040.4,0.190,779.9,01.14,0.508
2014-02-08 01:24:00,4194E-2,5C000495,-0725,1372,5424,000.8,040.3,0.190,779.9,01.14,0.508
2014-02-08 01:25:00,4166E-2,5C000495,-0725,1372,5480,000.8,040.3,0.190,779.9,01.14,0.508
2014-02-08 01:26:00,4201E-2,5C000495,-0725,1372,5444,000.7,040.3,0.190,779.9,01.14,0.508
2014-02-08 01:27:00,4178E-2,5C000495,-0725,1372,5320,000.7,040.3,0.190,779.9,01.14,0.508
2014-02-08 01:28:00,4229E-2,5C000495,-0725,1372,5373,000.7,040.3,0.190,779.9,01.14,0.508
2014-02-08 01:29:00,4247E-2,5C000485,-0725,1319,11957,000.7,040.3,0.190,779.9,01.14,0.508
2014-02-08 01:30:00,4704E-2,5C000405,-0725,1049,9942,000.7,040.2,0.190,779.8,01.14,0.508
2014-02-08 01:31:00,4415E-2,5C000415,-0725,1066,9694,000.7,040.2,0.190,779.8,01.14,0.508
2014-02-08 01:32:00,4555E-2,5C000415,-0725,1081,9670,000.7,040.2,0.190,779.8,01.14,0.508
2014-02-08 01:33:00,4528E-2,5C000415,-0725,1095,9451,000.7,040.2,0.190,779.8,01.14,0.508
2014-02-08 01:34:00,4588E-2,5C000415,-0725,1110,9308,000.7,040.2,0.190,779.8,01.14,0.508
2014-02-08 01:35:00,4513E-2,5C000415,-0725,1128,9222,000.7,040.2,0.190,779.8,01.14,0.508
2014-02-08 01:36:00,4525E-2,5C000415,-0725,1142,9079,000.7,040.2,0.190,779.8,01.14,0.508
2014-02-08 01:37:00,4495E-2,5C000415,-0725,1155,8968,000.6,040.2,0.190,779.8,01.14,0.508
2014-02-08 01:38:00,4460E-2,5C000415,-0725,1164,8890,000.6,040.2,0.190,779.8,01.14,0.508
2014-02-08 01:39:00,4458E-2,5C000415,-0725,1171,8674,000.6,040.2,0.190,779.8,01.14,0.508
2014-02-08 01:40:00,4449E-2,5C000415,-0725,1179,8762,000.6,040.1,0.190,779.8,01.14,0.508
2014-02-08 01:41:00,4439E-2,5C000415,-0725,1183,8643,000.6,040.1,0.190,779.8,01.14,0.508
2014-02-08 01:42:00,4445E-2,5C000415,-0725,1189,8587,000.6,040.1,0.190,779.8,01.14,0.508
2014-02-08 01:43:00,4450E-2,5C000415,-0725,1195,8585,000.6,040.1,0.190,779.8,01.14,0.508
2014-02-08 01:44:00,4435E-2,5C000415,-0725,1198,8582,000.5,040.1,0.190,779.8,01.14,0.508
2014-02-08 01:45:00,4425E-2,5C000415,-0725,1199,8569,000.6,040.1,0.190,779.8,01.14,0.508
2014-02-08 01:46:00,4426E-2,5C000415,-0725,1199,8574,000.5,040.1,0.190,779.8,01.14,0.508
2014-02-08 01:47:00,4427E-2,5C000495,-0725,1202,8552,000.5,040.1,0.190,779.8,01.14,0.508
2014-02-08 01:48:00,4422E-2,5C000495,-0725,1204,8366,000.5,040.0,0.190,779.8,01.14,0.508
2014-02-08 01:49:00,4440E-2,5C000495,-0725,1206,8528,000.5,040.0,0.190,779.8,01.14,0.508
2014-02-08 01:50:00,4410E-2,5C000495,-0725,1211,8397,000.5,040.0,0.190,779.8,01.14,0.508
2014-02-08 01:51:00,4382E-2,5C000495,-0725,1211,8433,000.5,040.0,0.190,779.8,01.14,0.508
2014-02-08 01:52:00,4368E-2,5C000495,-0725,1211,8518,000.5,040.0,0.190,779.8,01.14,0.508
2014-02-08 01:53:00,4381E-2,5C000495,-0725,1213,8447,000.5,040.0,0.190,779.7,01.14,0.508
2014-02-08 01:54:00,4401E-2,5C000495,-0725,1214,8559,000.4,040.0,0.191,779.8,01.14,0.508
2014-02-08 01:55:00,4362E-2,5C000495,-0725,1215,8428,000.4,039.9,0.191,779.8,01.14,0.508
2014-02-08 01:56:00,4406E-2,5C000495,-0725,1217,8509,000.4,040.0,0.190,779.8,01.14,0.508
2014-02-08 01:57:00,4419E-2,5C000495,-0725,1220,8324,000.4,039.9,0.190,779.8,01.14,0.508
2014-02-08 01:58:00,4394E-2,5C000495,-0725,1224,8111,000.4,039.9,0.191,779.8,01.14,0.508
2014-02-08 01:59:00,4373E-2,5C000495,-0725,1226,8318,000.4,039.9,0.191,779.8,01.14,0.508
2014-02-08 02:00:00,4376E-2,5C000495,-0725,1225,8413,000.4,040.0,0.191,779.8,01.14,0.508
2014-02-08 02:01:00,4415E-2,5C000495,-0725,1226,8387,000.3,039.9,0.190,779.8,01.14,0.508
2014-02-08 02:02:00,4295E-2,5C000495,-0725,1226,8399,000.4,039.9,0.191,779.8,01.14,0.508
2014-02-08 02:03:00,4409E-2,5C000495,-0725,1229,8269,000.3,039.9,0.191,779.8,01.14,0.508
2014-02-08 02:04:00,4428E-2,5C000495,-0725,1230,8199,000.3,039.9,0.191,779.8,01.14,0.508
2014-02-08 02:05:00,4400E-2,5C000495,-0725,1235,8178,000.3,039.9,0.191,779.8,01.14,0.508
2014-02-08 02:06:00,4349E-2,5C000495,-0725,1238,8172,000.3,039.9,0.191,779.8,01.14,0.508
2014-02-08 02:07:00,4391E-2,5C000495,-0725,1241,8143,000.3,039.9,0.191,779.8,01.14,0.508
2014-02-08 02:08:00,4347E-2,5C000495,-0725,1244,8110,000.3,039.9,0.191,779.8,01.14,0.508
2014-02-08 02:09:00,4349E-2,5C000495,-0725,1244,8146,000.3,039.9,0.191,779.8,01.14,0.508
2014-02-08 02:10:00,4345E-2,5C000495,-0725,1245,8185,000.3,039.8,0.191,779.8,01.14,0.508
2014-02-08 02:11:00,4399E-2,5C000495,-0725,1245,8147,000.3,039.8,0.191,779.8,01.14,0.508
2014-02-08 02:12:00,4322E-2,5C000495,-0725,1245,8214,000.3,039.8,0.191,779.8,01.14,0.508
2014-02-08 02:13:00,4331E-2,5C000495,-0725,1248,8016,000.3,039.8,0.191,779.8,01.14,0.508
2014-02-08 02:14:00,4400E-2,5C000495,-0725,1249,8117,000.2,039.8,0.191,779.8,01.14,0.508
2014-02-08 02:15:00,4311E-2,5C000495,-0725,1252,8135,000.2,039.8,0.191,779.8,01.14,0.508
2014-02-08 02:16:00,4320E-2,5C000495,-0725,1255,8056,000.2,039.8,0.191,779.8,01.14,0.508
2014-02-08 02:17:00,4363E-2,5C000495,-0725,1257,7944,000.2,039.7,0.191,779.8,01.14,0.508
2014-02-08 02:18:00,4312E-2,5C000495,-0725,1262,7853,000.2,039.7,0.191,779.8,01.14,0.508
2014-02-08 02:19:00,4224E-2,5C000495,-0725,1265,7809,000.2,039.7,0.191,779.8,01.14,0.508
2014-02-08 02:20:00,4325E-2,5C000495,-0725,1266,7938,000.2,039.8,0.191,779.8,01.14,0.508
2014-02-08 02:21:00,4306E-2,5C000495,-0725,1268,7904,000.1,039.7,0.191,779.8,01.14,0.508
2014-02-08 02:22:00,4275E-2,5C000495,-0725,1267,7933,000.1,039.7,0.191,779.8,01.14,0.508
2014-02-08 02:23:00,4311E-2,5C000495,-0725,1268,7908,000.1,039.7,0.191,779.9,01.14,0.508
2014-02-08 02:24:00,4279E-2,5C000495,-0725,1270,7899,000.1,039.7,0.191,779.8,01.14,0.508
2014-02-08 02:25:00,4248E-2,5C000495,-0725,1273,7953,000.1,039.7,0.191,779.9,01.14,0.508
2014-02-08 02:26:00,4251E-2,5C000495,-0725,1272,7812,000.1,039.6,0.191,779.9,01.14,0.508
2014-02-08 02:27:00,4295E-2,5C000495,-0725,1271,7835,000.1,039.6,0.191,779.9,01.14,0.508
2014-02-08 02:28:00,4273E-2,5C000495,-0725,1271,7857,000.1,039.6,0.191,779.9,01.14,0.508
2014-02-08 02:29:00,4347E-2,5C000495,-0725,1271,7923,000.1,039.6,0.191,779.9,01.14,0.508
2014-02-08 02:30:00,4253E-2,5C000495,-0725,1273,7830,000.1,039.6,0.191,779.9,01.14,0.508
2014-02-08 02:31:00,4289E-2,5C000495,-0725,1275,7852,000.1,039.6,0.191,779.9,01.14,0.508
2014-02-08 02:32:00,4262E-2,5C000495,-0725,1276,7806,000.0,039.6,0.191,779.9,01.14,0.508
2014-02-08 02:33:00,4259E-2,5C000495,-0725,1281,7750,000.0,039.6,0.191,779.9,01.14,0.508
2014-02-08 02:34:00,4245E-2,5C000495,-0725,1284,7742,000.0,039.6,0.191,779.9,01.14,0.508
2014-02-08 02:35:00,4203E-2,5C000495,-0725,1286,7638,000.0,039.6,0.191,779.9,01.14,0.508
2014-02-08 02:36:00,4251E-2,5C000495,-0725,1289,7724,000.0,039.5,0.191,779.9,01.14,0.508
2014-02-08 02:37:00,4202E-2,5C000495,-0725,1289,7739,000.0,039.6,0.191,779.9,01.14,0.508
2014-02-08 02:38:00,4254E-2,5C000495,-0725,1290,7765,000.0,039.5,0.191,779.9,01.14,0.508
2014-02-08 02:39:00,4230E-2,5C000495,-0725,1287,7707,000.0,039.5,0.191,779.9,01.14,0.508
2014-02-08 02:40:00,4198E-2,5C000495,-0725,1287,7801,999.9,039.5,0.191,779.9,01.14,0.508
2014-02-08 02:41:00,4250E-2,5C000495,-0725,1288,7714,999.9,039.5,0.191,779.9,01.14,0.508
2014-02-08 02:42:00,4188E-2,5C000495,-0725,1287,7624,999.9,039.5,0.191,779.9,01.14,0.508
2014-02-08 02:43:00,4256E-2,5C000495,-0725,1287,7823,999.9,039.5,0.191,779.9,01.14,0.508
2014-02-08 02:44:00,4267E-2,5C000495,-0725,1288,7807,999.9,039.5,0.192,779.9,01.14,0.508
2014-02-08 02:45:00,4295E-2,5C000495,-0725,1287,7687,999.9,039.4,0.192,779.9,01.14,0.508
2014-02-08 02:46:00,4272E-2,5C000495,-0725,1288,7757,999.9,039.4,0.191,779.9,01.14,0.508
2014-02-08 02:47:00,4235E-2,5C000495,-0725,1290,7673,999.9,039.4,0.192,779.9,01.14,0.508
2014-02-08 02:48:00,4241E-2,5C000495,-0725,1293,7654,999.9,039.4,0.192,780.0,01.14,0.508
2014-02-08 02:49:00,4241E-2,5C000495,-0725,1295,7663,999.9,039.4,0.192,780.0,01.14,0.508
2014-02-08 02:50:00,4242E-2,5C000495,-0725,1296,7591,999.9,039.4,0.192,780.0,01.14,0.508
2014-02-08 02:51:00,4271E-2,5C000495,-0725,1299,7688,999.9,039.4,0.192,780.0,01.14,0.508
2014-02-08 02:52:00,4235E-2,5C000495,-0725,1302,7609,999.9,039.4,0.192,780.0,01.14,0.508
2014-02-08 02:53:00,4288E-2,5C000495,-0725,1302,7575,999.9,039.4,0.192,780.0,01.14,0.508
2014-02-08 02:54:00,4259E-2,5C000495,-0725,1305,7562,999.9,039.4,0.192,780.0,01.14,0.508
2014-02-08 02:55:00,4269E-2,5C000495,-0725,1305,7506,999.9,039.4,0.192,780.0,01.14,0.508
2014-02-08 02:56:00,4273E-2,5C000495,-0725,1305,7558,999.9,039.3,0.192,780.0,01.14,0.508
2014-02-08 02:57:00,4276E-2,5C000495,-0725,1303,7532,999.9,039.3,0.192,780.0,01.14,0.508
2014-02-08 02:58:00,4304E-2,5C000495,-0725,1305,7392,999.9,039.3,0.192,780.0,01.14,0.508
2014-02-08 02:59:00,4232E-2,5C000495,-0725,1308,7537,999.9,039.3,0.192,780.0,01.14,0.508
2014-02-08 03:00:00,4280E-2,5C000495,-0725,1311,7387,999.9,039.3,0.192,780.0,01.14,0.508
2014-02-08 03:01:00,4484E-2,5C000495,-0725,1314,7374,999.9,039.3,0.192,780.0,01.14,0.508
2014-02-08 03:02:00,4191E-2,5C000495,-0725,1314,7436,999.9,039.3,0.192,780.0,01.14,0.508
2014-02-08 03:03:00,4174E-2,5C000495,-0725,1315,7252,999.9,039.3,0.192,780.0,01.14,0.508
2014-02-08 03:04:00,4140E-2,5C000495,-0725,1315,7443,999.9,039.3,0.192,780.0,01.14,0.508
2014-02-08 03:05:00,4117E-2,5C000495,-0725,1315,7445,999.9,039.2,0.192,780.0,01.14,0.508
2014-02-08 03:06:00,4163E-2,5C000495,-0725,1318,7325,999.9,039.2,0.192,780.0,01.14,0.508
2014-02-08 03:07:00,4119E-2,5C000495,-0725,1321,7325,999.9,039.2,0.192,780.0,01.14,0.508
2014-02-08 03:08:00,4153E-2,5C000495,-0725,1324,7315,999.9,039.2,0.192,780.0,01.14,0.508
2014-02-08 03:09:00,4144E-2,5C000495,-0725,1328,7297,999.9,039.2,0.192,780.0,01.14,0.508
2014-02-08 03:10:00,4126E-2,5C000495,-0725,1330,7316,999.9,039.2,0.192,780.0,01.14,0.508
2014-02-08 03:11:00,4138E-2,5C000495,-0725,1329,7342,999.9,039.3,0.192,780.0,01.14,0.508
2014-02-08 03:12:00,4135E-2,5C000495,-0725,1330,7269,999.9,039.2,0.192,780.0,01.14,0.508
2014-02-08 03:13:00,4091E-2,5C000495,-0725,1333,7260,999.9,039.2,0.192,780.0,01.14,0.508
2014-02-08 03:14:00,4118E-2,5C000495,-0725,1335,7247,999.9,039.2,0.192,780.0,01.14,0.508
2014-02-08 03:15:00,4150E-2,5C000495,-0725,1335,7162,999.9,039.2,0.192,780.0,01.14,0.508
2014-02-08 03:16:00,4142E-2,5C000495,-0725,1335,7299,999.9,039.2,0.192,780.0,01.14,0.508
2014-02-08 03:17:00,4095E-2,5C000495,-0725,1337,7243,999.9,039.1,0.192,780.0,01.14,0.508
2014-02-08 03:18:00,4099E-2,5C000495,-0725,1338,7242,999.9,039.1,0.192,780.0,01.14,0.508
2014-02-08 03:19:00,4103E-2,5C000495,-0725,1337,7262,999.9,039.1,0.192,780.0,01.14,0.508
2014-02-08 03:20:00,4147E-2,5C000495,-0725,1335,7332,999.9,039.1,0.192,780.0,01.14,0.508
2014-02-08 03:21:00,4121E-2,5C000495,-0725,1335,7277,999.9,039.1,0.192,780.1,01.14,0.508
2014-02-08 03:22:00,4152E-2,5C000495,-0725,1337,7190,999.9,039.1,0.192,780.0,01.14,0.508
2014-02-08 03:23:00,4121E-2,5C000495,-0725,1339,7228,999.9,039.1,0.192,780.0,01.14,0.508
2014-02-08 03:24:00,4084E-2,5C000495,-0725,1341,7156,999.9,039.1,0.192,780.0,01.14,0.508
2014-02-08 03:25:00,4104E-2,5C000495,-0725,1344,7148,999.9,039.1,0.192,780.0,01.14,0.508
2014-02-08 03:26:00,4117E-2,5C000495,-0725,1347,7084,999.9,039.1,0.192,780.0,01.14,0.508
2014-02-08 03:27:00,4117E-2,5C000495,-0725,1349,7023,999.9,039.1,0.192,780.0,01.14,0.508
2014-02-08 03:28:00,4084E-2,5C000495,-0725,1349,7096,999.9,039.1,0.192,780.1,01.14,0.508
2014-02-08 03:29:00,4110E-2,5C000495,-0725,1350,7034,999.9,039.0,0.192,780.1,01.14,0.508
2014-02-08 03:30:00,4107E-2,5C000495,-0725,1350,7060,999.9,039.0,0.192,780.1,01.14,0.508
2014-02-08 03:31:00,4135E-2,5C000495,-0725,1351,7124,999.9,039.0,0.192,780.1,01.14,0.508
2014-02-08 03:32:00,4129E-2,5C000495,-0725,1352,7022,999.9,039.0,0.192,780.1,01.14,0.508
2014-02-08 03:33:00,4099E-2,5C000495,-0725,1354,6951,999.9,039.0,0.192,780.1,01.14,0.508
2014-02-08 03:34:00,4079E-2,5C000495,-0725,1357,6951,999.9,039.0,0.192,780.1,01.14,0.508
2014-02-08 03:35:00,4113E-2,5C000495,-0725,1355,7051,999.9,039.0,0.193,780.1,01.14,0.508
2014-02-08 03:36:00,4057E-2,5C000495,-0725,1355,6992,999.9,039.0,0.192,780.1,01.14,0.508
2014-02-08 03:37:00,4074E-2,5C000495,-0725,1355,7109,999.9,038.9,0.193,780.1,01.14,0.508
2014-02-08 03:38:00,4119E-2,5C000495,-0725,1357,6977,999.9,039.0,0.193,780.1,01.14,0.508
2014-02-08 03:39:00,4122E-2,5C000495,-0725,1359,6968,999.9,038.9,0.193,780.1,01.14,0.508
2014-02-08 03:40:00,4077E-2,5C000495,-0725,1361,6900,999.9,039.0,0.193,780.1,01.14,0.508
2014-02-08 03:41:00,4041E-2,5C000495,-0725,1362,6900,999.9,038.9,0.193,780.1,01.14,0.508
2014-02-08 03:42:00,4081E-2,5C000495,-0725,1363,6854,999.9,038.9,0.193,780.1,01.14,0.508
2014-02-08 03:43:00,4157E-2,5C000495,-0725,1364,6840,999.9,038.9,0.193,780.1,01.14,0.508
2014-02-08 03:44:00,4105E-2,5C000495,-0725,1363,6945,999.9,038.9,0.193,780.1,01.14,0.508
2014-02-08 03:45:00,4107E-2,5C000495,-0725,1363,6975,999.9,038.9,0.193,780.1,01.14,0.508
2014-02-08 03:46:00,4028E-2,5C000495,-0725,1362,6880,999.9,038.9,0.193,780.1,01.14,0.508
2014-02-08 03:47:00,4046E-2,5C000495,-0725,1362,6993,999.9,038.9,0.193,780.1,01.14,0.508
2014-02-08 03:48:00,4064E-2,5C000495,-0725,1362,6831,999.9,038.9,0.193,780.1,01.14,0.508
2014-02-08 03:49:00,4072E-2,5C000495,-0725,1365,6958,999.9,038.9,0.193,780.2,01.14,0.508
2014-02-08 03:50:00,4056E-2,5C000495,-0725,1366,6915,999.9,038.9,0.193,780.2,01.14,0.508
2014-02-08 03:51:00,4092E-2,5C000495,-0725,1366,6864,999.9,038.9,0.193,780.2,01.14,0.508
2014-02-08 03:52:00,4032E-2,5C000495,-0725,1366,6933,999.9,038.8,0.193,780.2,01.14,0.508
2014-02-08 03:53:00,4034E-2,5C000495,-0725,1365,6852,999.9,038.9,0.193,780.2,01.14,0.508
2014-02-08 03:54:00,4077E-2,5C000495,-0725,1365,6896,999.9,038.9,0.193,780.2,01.14,0.508
2014-02-08 03:55:00,4061E-2,5C000495,-0725,1366,6807,999.9,038.8,0.193,780.2,01.14,0.508
2014-02-08 03:56:00,4016E-2,5C000495,-0725,1366,6766,999.9,038.8,0.193,780.2,01.14,0.508
2014-02-08 03:57:00,4016E-2,5C000495,-0725,1367,6833,999.9,038.8,0.193,780.2,01.14,0.508
2014-02-08 03:58:00,3975E-2,5C000495,-0725,1366,6799,999.9,038.8,0.193,780.1,01.14,0.508
2014-02-08 03:59:00,4014E-2,5C000495,-0725,1366,6853,999.9,038.8,0.193,780.1,01.14,0.508
2014-02-08 04:00:00,4017E-2,5C000495,-0725,1366,6867,999.9,038.8,0.193,780.1,01.14,0.508
2014-02-08 04:01:00,4016E-2,5C000495,-0725,1367,6747,999.9,038.8,0.193,780.1,01.14,0.508
2014-02-08 04:02:00,3979E-2,5C000495,-0725,1367,6778,999.9,038.8,0.193,780.1,01.14,0.508
2014-02-08 04:03:00,3965E-2,5C000495,-0725,1368,6809,999.9,038.7,0.193,780.1,01.14,0.508
2014-02-08 04:04:00,3949E-2,5C000495,-0725,1368,6790,999.9,038.7,0.193,780.1,01.14,0.508
2014-02-08 04:05:00,3939E-2,5C000495,-0725,1369,6833,999.9,038.7,0.193,780.1,01.14,0.508
2014-02-08 04:06:00,4008E-2,5C000495,-0725,1368,6773,999.9,038.7,0.193,780.1,01.14,0.508
2014-02-08 04:07:00,3970E-2,5C000495,-0725,1369,6767,999.9,038.7,0.193,780.1,01.14,0.508
2014-02-08 04:08:00,3978E-2,5C000495,-0725,1369,6731,999.9,038.7,0.193,780.1,01.14,0.508
2014-02-08 04:09:00,3989E-2,5C000495,-0725,1368,6789,999.9,038.7,0.193,780.1,01.14,0.508
2014-02-08 04:10:00,4026E-2,5C000495,-0725,1369,6781,999.9,038.7,0.193,780.1,01.14,0.508
2014-02-08 04:11:00,3952E-2,5C000495,-0725,1369,6753,999.9,038.7,0.193,780.1,01.14,0.508
2014-02-08 04:12:00,3980E-2,5C000495,-0725,1369,6737,999.9,038.7,0.193,780.1,01.14,0.508
2014-02-08 04:13:00,3949E-2,5C000495,-0725,1370,6735,999.9,038.6,0.193,780.1,01.14,0.508
2014-02-08 04:14:00,4000E-2,5C000495,-0725,1370,6725,999.9,038.6,0.193,780.1,01.14,0.508
2014-02-08 04:15:00,3990E-2,5C000495,-0725,1370,6718,999.9,038.7,0.193,780.1,01.14,0.508
2014-02-08 04:16:00,3960E-2,5C000495,-0725,1370,6730,999.9,038.6,0.193,780.1,01.14,0.508
2014-02-08 04:17:00,3951E-2,5C000495,-0725,1370,6666,999.9,038.7,0.193,780.1,01.14,0.508
2014-02-08 04:18:00,3932E-2,5C000495,-0725,1371,6690,999.9,038.7,0.193,780.1,01.14,0.508
2014-02-08 04:19:00,3987E-2,5C000495,-0725,1371,6657,999.9,038.6,0.193,780.1,01.14,0.508
2014-02-08 04:20:00,3993E-2,5C000495,-0725,1371,6570,999.9,038.6,0.193,780.1,01.14,0.508
2014-02-08 04:21:00,3993E-2,5C000495,-0725,1371,6643,999.9,038.6,0.193,780.1,01.14,0.508
2014-02-08 04:22:00,3941E-2,5C000495,-0725,1371,6606,999.9,038.6,0.193,780.0,01.14,0.508
2014-02-08 04:23:00,3952E-2,5C000495,-0725,1371,6735,999.9,038.6,0.193,780.0,01.14,0.508